THA112 VTBS-VTCC

Flight info

Callsign THA112
Flight time 1h 2m
Altitude 30000
Route OLVUK1J OLVUK Y26 MARNI MARNI2B
Aircraft B77W/H-SDE1E2E3FGHIJ2J3J4J5M1RWXY/LB1D1

Departure

Time 2026-04-20 07:34
Airport Suvarnabhumi Airport (VTBS)

Arrival

Time 2026-04-20 08:36
Airport Chiang Mai International Airport (VTCC)
Time Latitude Longitude Altitude Speed Heading
2026-04-20 07:20 13.68922 100.75632 18 ft 0 kts 14°
2026-04-20 07:26 13.68912 100.75629 20 ft 2 kts 17°
2026-04-20 07:26 13.68897 100.75624 20 ft 2 kts 20°
2026-04-20 07:26 13.68882 100.75618 21 ft 2 kts 27°
2026-04-20 07:27 13.68868 100.75609 22 ft 2 kts 40°
2026-04-20 07:27 13.68857 100.75596 19 ft 2 kts 70°
2026-04-20 07:27 13.68855 100.75580 22 ft 2 kts 102°
2026-04-20 07:27 13.68856 100.75577 21 ft 0 kts 104°
2026-04-20 07:28 13.68855 100.75578 21 ft 0 kts 104°
2026-04-20 07:28 13.68855 100.75581 22 ft 1 kts 104°
2026-04-20 07:28 13.68853 100.75586 22 ft 1 kts 104°
2026-04-20 07:28 13.68852 100.75592 20 ft 1 kts 105°
2026-04-20 07:29 13.68850 100.75600 19 ft 1 kts 105°
2026-04-20 07:29 13.68847 100.75611 19 ft 3 kts 105°
2026-04-20 07:29 13.68836 100.75654 18 ft 10 kts 105°
2026-04-20 07:29 13.68815 100.75732 18 ft 12 kts 105°
2026-04-20 07:30 13.68826 100.75809 19 ft 12 kts 47°
2026-04-20 07:30 13.68899 100.75840 18 ft 9 kts 15°
2026-04-20 07:30 13.68944 100.75853 18 ft 7 kts 15°
2026-04-20 07:30 13.68988 100.75866 18 ft 7 kts 15°
2026-04-20 07:31 13.69032 100.75878 18 ft 7 kts 13°
2026-04-20 07:31 13.69079 100.75889 18 ft 7 kts 13°
2026-04-20 07:31 13.69129 100.75901 18 ft 8 kts 13°
2026-04-20 07:31 13.69183 100.75914 18 ft 8 kts 19°
2026-04-20 07:32 13.69204 100.75962 17 ft 7 kts 99°
2026-04-20 07:32 13.69203 100.75969 17 ft 1 kts 101°
2026-04-20 07:32 13.69191 100.76020 17 ft 14 kts 109°
2026-04-20 07:32 13.69127 100.76083 17 ft 12 kts 163°
2026-04-20 07:33 13.69075 100.76078 17 ft 8 kts 193°
2026-04-20 07:33 13.68910 100.76039 20 ft 49 kts 193°
2026-04-20 07:33 13.68329 100.75883 18 ft 122 kts 194°
2026-04-20 07:33 13.67318 100.75625 129 ft 166 kts 192°
2026-04-20 07:34 13.66200 100.75332 811 ft 166 kts 197°
2026-04-20 07:34 13.65064 100.75033 1530 ft 172 kts 183°
2026-04-20 07:34 13.63864 100.75081 2082 ft 181 kts 178°
2026-04-20 07:35 13.60904 100.75187 2563 ft 241 kts 178°
2026-04-20 07:35 13.59208 100.75478 3052 ft 254 kts 162°
2026-04-20 07:35 13.57489 100.76061 3670 ft 266 kts 162°
2026-04-20 07:35 13.55683 100.76623 4381 ft 276 kts 163°
2026-04-20 07:36 13.53819 100.77175 5170 ft 281 kts 164°
2026-04-20 07:36 13.51919 100.77725 6013 ft 286 kts 165°
2026-04-20 07:36 13.49995 100.78277 6820 ft 288 kts 165°
2026-04-20 07:36 13.48064 100.78657 7515 ft 288 kts 182°
2026-04-20 07:37 13.46109 100.78142 8217 ft 290 kts 211°
2026-04-20 07:37 13.44646 100.76799 9013 ft 287 kts 237°
2026-04-20 07:37 13.43894 100.74929 9715 ft 286 kts 262°
2026-04-20 07:37 13.44065 100.72939 10285 ft 282 kts 291°
2026-04-20 07:38 13.45175 100.71223 10573 ft 299 kts 312°
2026-04-20 07:38 13.46530 100.69522 10699 ft 319 kts 302°
2026-04-20 07:38 13.47651 100.67459 10898 ft 342 kts 297°
2026-04-20 07:38 13.48892 100.65292 11207 ft 359 kts 305°
2026-04-20 07:39 13.50554 100.63367 11925 ft 363 kts 318°
2026-04-20 07:39 13.52603 100.61867 12691 ft 362 kts 333°
2026-04-20 07:39 13.55025 100.61228 13467 ft 362 kts 354°
2026-04-20 07:39 13.57542 100.60853 13710 ft 375 kts 339°
2026-04-20 07:40 13.59845 100.59526 14048 ft 384 kts 325°
2026-04-20 07:40 13.62212 100.58147 14378 ft 398 kts 338°
2026-04-20 07:40 13.64900 100.57383 15089 ft 404 kts 351°
2026-04-20 07:40 13.67710 100.57198 15925 ft 406 kts 359°
2026-04-20 07:41 13.70553 100.57324 16664 ft 411 kts
2026-04-20 07:41 13.73425 100.57501 17377 ft 415 kts
2026-04-20 07:41 13.76325 100.57443 17908 ft 422 kts 352°
2026-04-20 07:41 13.79182 100.56710 18551 ft 426 kts 340°
2026-04-20 07:42 13.81851 100.55400 19290 ft 426 kts 329°
2026-04-20 07:42 13.84348 100.53762 19989 ft 427 kts 328°
2026-04-20 07:42 13.86868 100.52112 20610 ft 432 kts 328°
2026-04-20 07:42 13.89437 100.50473 21186 ft 436 kts 329°
2026-04-20 07:43 13.92042 100.48848 21750 ft 441 kts 331°
2026-04-20 07:43 13.94788 100.47419 22410 ft 442 kts 337°
2026-04-20 07:43 13.97669 100.46283 22967 ft 446 kts 343°
2026-04-20 07:43 14.00659 100.45353 23426 ft 452 kts 343°
2026-04-20 07:44 14.03689 100.44427 23830 ft 457 kts 343°
2026-04-20 07:44 14.06743 100.43485 24318 ft 459 kts 343°
2026-04-20 07:44 14.09801 100.42529 24844 ft 460 kts 343°
2026-04-20 07:44 14.12867 100.41561 25342 ft 462 kts 343°
2026-04-20 07:45 14.15947 100.40583 25795 ft 465 kts 343°
2026-04-20 07:45 14.19048 100.39596 26254 ft 468 kts 343°
2026-04-20 07:45 14.22172 100.38603 26686 ft 471 kts 342°
2026-04-20 07:45 14.25316 100.37604 27128 ft 474 kts 343°
2026-04-20 07:46 14.28472 100.36602 27564 ft 476 kts 342°
2026-04-20 07:46 14.31606 100.35606 27984 ft 479 kts 342°
2026-04-20 07:46 14.34840 100.34578 28390 ft 481 kts 342°
2026-04-20 07:46 14.38008 100.33570 28766 ft 484 kts 342°
2026-04-20 07:47 14.41238 100.32543 29131 ft 487 kts 342°
2026-04-20 07:47 14.44476 100.31508 29548 ft 488 kts 342°
2026-04-20 07:47 14.47668 100.30317 29794 ft 489 kts 337°
2026-04-20 07:47 14.50739 100.28812 29795 ft 487 kts 333°
2026-04-20 07:48 14.56767 100.25672 29778 ft 485 kts 333°
2026-04-20 07:48 14.62823 100.22598 29772 ft 485 kts 334°
2026-04-20 07:49 14.69057 100.19919 29771 ft 486 kts 342°
2026-04-20 07:49 14.75508 100.17829 29766 ft 486 kts 342°
2026-04-20 07:50 14.81961 100.15720 29773 ft 487 kts 342°
2026-04-20 07:50 14.88405 100.13576 29777 ft 487 kts 341°
2026-04-20 07:51 14.94848 100.11422 29770 ft 486 kts 341°
2026-04-20 07:51 15.01285 100.09273 29770 ft 486 kts 342°
2026-04-20 07:52 15.07726 100.07127 29770 ft 486 kts 342°
2026-04-20 07:52 15.14162 100.04985 29769 ft 486 kts 342°
2026-04-20 07:53 15.20599 100.02841 29771 ft 486 kts 342°
2026-04-20 07:53 15.27027 100.00697 29769 ft 486 kts 342°
2026-04-20 07:54 15.33461 99.98550 29772 ft 486 kts 342°
2026-04-20 07:54 15.39892 99.96402 29771 ft 486 kts 342°
2026-04-20 07:55 15.46325 99.94252 29767 ft 486 kts 341°
2026-04-20 07:55 15.52761 99.92100 29769 ft 486 kts 341°
2026-04-20 07:56 15.59198 99.89945 29772 ft 486 kts 341°
2026-04-20 07:56 15.65635 99.87790 29771 ft 486 kts 341°
2026-04-20 07:57 15.72073 99.85633 29769 ft 486 kts 341°
2026-04-20 07:57 15.78466 99.83489 29770 ft 486 kts 341°
2026-04-20 07:58 15.84909 99.81327 29769 ft 487 kts 341°
2026-04-20 07:58 15.91350 99.79165 29768 ft 487 kts 341°
2026-04-20 07:59 15.97799 99.76998 29764 ft 487 kts 341°
2026-04-20 07:59 16.04250 99.74829 29770 ft 487 kts 341°
2026-04-20 08:00 16.10698 99.72659 29773 ft 487 kts 341°
2026-04-20 08:00 16.17143 99.70490 29772 ft 487 kts 341°
2026-04-20 08:01 16.23596 99.68315 29775 ft 487 kts 341°
2026-04-20 08:01 16.30047 99.66139 29772 ft 487 kts 341°
2026-04-20 08:02 16.36497 99.63964 29773 ft 487 kts 341°
2026-04-20 08:02 16.42949 99.61792 29777 ft 487 kts 341°
2026-04-20 08:03 16.49357 99.59633 29775 ft 487 kts 341°
2026-04-20 08:03 16.55812 99.57457 29774 ft 487 kts 341°
2026-04-20 08:04 16.62263 99.55279 29769 ft 487 kts 341°
2026-04-20 08:04 16.68706 99.53103 29773 ft 487 kts 341°
2026-04-20 08:05 16.75150 99.50923 29767 ft 487 kts 341°
2026-04-20 08:05 16.81590 99.48738 29768 ft 487 kts 341°
2026-04-20 08:06 16.88032 99.46550 29768 ft 487 kts 340°
2026-04-20 08:06 16.94470 99.44362 29764 ft 486 kts 340°
2026-04-20 08:07 17.00901 99.42176 29756 ft 486 kts 340°
2026-04-20 08:07 17.07326 99.39990 29757 ft 485 kts 340°
2026-04-20 08:08 17.13744 99.37804 29771 ft 485 kts 340°
2026-04-20 08:08 17.20162 99.35618 29781 ft 485 kts 340°
2026-04-20 08:09 17.26578 99.33429 29777 ft 485 kts 340°
2026-04-20 08:09 17.32978 99.31245 29775 ft 481 kts 340°
2026-04-20 08:10 17.39309 99.29084 29786 ft 478 kts 340°
2026-04-20 08:10 17.44558 99.27290 29793 ft 478 kts 340°
2026-04-20 08:11 17.51013 99.25532 29789 ft 480 kts 345°
2026-04-20 08:11 17.57455 99.23960 29792 ft 463 kts 345°
2026-04-20 08:12 17.60547 99.23203 29725 ft 450 kts 345°
2026-04-20 08:12 17.63562 99.22458 29611 ft 441 kts 344°
2026-04-20 08:12 17.66528 99.21718 29368 ft 435 kts 344°
2026-04-20 08:12 17.69461 99.20983 28982 ft 433 kts 344°
2026-04-20 08:13 17.72386 99.20247 28536 ft 432 kts 344°
2026-04-20 08:13 17.75302 99.19514 28127 ft 430 kts 344°
2026-04-20 08:13 17.78206 99.18784 27758 ft 428 kts 344°
2026-04-20 08:13 17.81094 99.18058 27382 ft 426 kts 344°
2026-04-20 08:14 17.83971 99.17335 27028 ft 424 kts 344°
2026-04-20 08:14 17.86828 99.16617 26690 ft 421 kts 344°
2026-04-20 08:14 17.89670 99.15903 26357 ft 419 kts 344°
2026-04-20 08:14 17.92500 99.15192 26021 ft 417 kts 344°
2026-04-20 08:15 17.95314 99.14483 25655 ft 415 kts 344°
2026-04-20 08:15 17.98114 99.13778 25342 ft 413 kts 344°
2026-04-20 08:15 18.00903 99.13076 25017 ft 410 kts 344°
2026-04-20 08:15 18.03670 99.12380 24607 ft 408 kts 344°
2026-04-20 08:16 18.06437 99.11683 24166 ft 410 kts 344°
2026-04-20 08:16 18.09220 99.10981 23676 ft 413 kts 344°
2026-04-20 08:16 18.12045 99.10378 23152 ft 417 kts 351°
2026-04-20 08:16 18.14918 99.10239 22624 ft 421 kts 359°
2026-04-20 08:17 18.17842 99.10505 22116 ft 424 kts
2026-04-20 08:17 18.20729 99.11166 21636 ft 425 kts 11°
2026-04-20 08:17 18.23602 99.11906 21132 ft 425 kts 11°
2026-04-20 08:17 18.26481 99.12652 20638 ft 426 kts 11°
2026-04-20 08:18 18.29358 99.13385 20144 ft 426 kts 11°
2026-04-20 08:18 18.32243 99.14106 19649 ft 426 kts 11°
2026-04-20 08:18 18.35133 99.14821 19141 ft 427 kts 11°
2026-04-20 08:18 18.38025 99.15532 18639 ft 427 kts 11°
2026-04-20 08:19 18.40918 99.16243 18137 ft 427 kts 11°
2026-04-20 08:19 18.43757 99.16943 17554 ft 411 kts 11°
2026-04-20 08:19 18.46513 99.17624 17070 ft 406 kts 11°
2026-04-20 08:19 18.49261 99.18302 16577 ft 406 kts 11°
2026-04-20 08:20 18.52020 99.18982 16090 ft 407 kts 11°
2026-04-20 08:20 18.54777 99.19664 15625 ft 408 kts 11°
2026-04-20 08:20 18.57545 99.20341 15135 ft 408 kts 10°
2026-04-20 08:20 18.60352 99.20801 14597 ft 409 kts
2026-04-20 08:21 18.63160 99.20901 14013 ft 397 kts 357°
2026-04-20 08:21 18.65876 99.20860 13437 ft 384 kts 358°
2026-04-20 08:21 18.68507 99.20849 12835 ft 372 kts 358°
2026-04-20 08:21 18.71066 99.20855 12343 ft 367 kts 358°
2026-04-20 08:22 18.73616 99.20867 12052 ft 366 kts 358°
2026-04-20 08:22 18.76162 99.20878 11719 ft 361 kts 358°
2026-04-20 08:22 18.78596 99.20889 11463 ft 340 kts 358°
2026-04-20 08:22 18.80899 99.20900 11323 ft 322 kts 358°
2026-04-20 08:23 18.83087 99.20909 11209 ft 306 kts 358°
2026-04-20 08:23 18.85166 99.20917 11110 ft 292 kts 358°
2026-04-20 08:23 18.87151 99.20925 10997 ft 279 kts 358°
2026-04-20 08:23 18.89054 99.20932 10838 ft 269 kts 358°
2026-04-20 08:24 18.90894 99.20939 10672 ft 260 kts 357°
2026-04-20 08:24 18.92679 99.20945 10467 ft 253 kts 358°
2026-04-20 08:24 18.94427 99.20951 10173 ft 251 kts 358°
2026-04-20 08:24 18.96165 99.20957 9838 ft 249 kts 358°
2026-04-20 08:25 18.97901 99.20964 9473 ft 250 kts 356°
2026-04-20 08:25 18.99638 99.20970 9151 ft 248 kts 358°
2026-04-20 08:25 19.01339 99.20979 9053 ft 245 kts 357°
2026-04-20 08:25 19.03017 99.20789 8765 ft 237 kts 333°
2026-04-20 08:26 19.04255 99.19791 8709 ft 222 kts 302°
2026-04-20 08:26 19.04904 99.18345 8696 ft 219 kts 283°
2026-04-20 08:26 19.05032 99.16758 8639 ft 215 kts 269°
2026-04-20 08:26 19.05026 99.15179 8538 ft 212 kts 269°
2026-04-20 08:27 19.05026 99.13636 8481 ft 209 kts 269°
2026-04-20 08:27 19.05026 99.12104 8410 ft 210 kts 269°
2026-04-20 08:27 19.05025 99.10534 8098 ft 215 kts 269°
2026-04-20 08:27 19.05027 99.08980 7810 ft 209 kts 269°
2026-04-20 08:28 19.05030 99.07454 7570 ft 208 kts 269°
2026-04-20 08:28 19.05033 99.05914 7279 ft 211 kts 269°
2026-04-20 08:28 19.05035 99.04351 6980 ft 213 kts 269°
2026-04-20 08:28 19.05039 99.02784 6675 ft 213 kts 269°
2026-04-20 08:29 19.05044 99.01218 6372 ft 212 kts 270°
2026-04-20 08:29 19.05048 98.99665 6074 ft 211 kts 269°
2026-04-20 08:29 19.04917 98.98148 5743 ft 205 kts 249°
2026-04-20 08:29 19.04075 98.96989 5493 ft 198 kts 216°
2026-04-20 08:30 19.02842 98.96388 5270 ft 195 kts 192°
2026-04-20 08:30 19.01510 98.96336 5163 ft 188 kts 181°
2026-04-20 08:30 19.00187 98.96345 4991 ft 194 kts 182°
2026-04-20 08:30 18.98836 98.96340 4688 ft 191 kts 183°
2026-04-20 08:31 18.97530 98.96341 4492 ft 188 kts 183°
2026-04-20 08:31 18.96221 98.96337 4280 ft 188 kts 182°
2026-04-20 08:31 18.94929 98.96332 4080 ft 184 kts 182°
2026-04-20 08:31 18.93658 98.96330 3902 ft 183 kts 182°
2026-04-20 08:32 18.92393 98.96328 3713 ft 181 kts 182°
2026-04-20 08:32 18.91138 98.96325 3537 ft 179 kts 182°
2026-04-20 08:32 18.89914 98.96323 3508 ft 172 kts 181°
2026-04-20 08:32 18.88723 98.96320 3452 ft 170 kts 181°
2026-04-20 08:33 18.87563 98.96315 3397 ft 169 kts 181°
2026-04-20 08:33 18.85155 98.96222 3170 ft 173 kts 187°
2026-04-20 08:33 18.83957 98.96105 2778 ft 173 kts 187°
2026-04-20 08:34 18.82768 98.96038 2393 ft 168 kts 182°
2026-04-20 08:34 18.81636 98.96022 1996 ft 158 kts 179°
2026-04-20 08:34 18.80567 98.96062 1710 ft 156 kts 177°
2026-04-20 08:34 18.79469 98.96170 1478 ft 163 kts 167°
2026-04-20 08:35 18.78336 98.96281 1153 ft 162 kts 177°
2026-04-20 08:35 18.77250 98.96293 1038 ft 145 kts 181°
2026-04-20 08:35 18.76358 98.96288 1037 ft 110 kts 179°
2026-04-20 08:35 18.75700 98.96286 1036 ft 76 kts 180°
2026-04-20 08:36 18.75363 98.96289 1035 ft 14 kts 171°
2026-04-20 08:36 18.75320 98.96346 1037 ft 10 kts 96°